Theta_e
331 331 331 331 332 331 330 330 330 330 329 328 328 326 325 324 324 325 326 325 325 326 326 326 327 328 328 328 328 328 328 328 328 327 328 327 327 323 320 323 326 327 324 324 323 323 322 321 321 320 320 321 318 321 320 319 318 317 317 316 316 317 316 315 315 315 315 314 314 314 314 314 313 313 313 312 313 312 312 311 310 310 312 311 310
331 331 330 330 330 330 330 330 328 328 327 327 326 325 324 323 324 324 324 325 325 325 325 325 325 326 327 327 327 327 328 327 327 326 326 327 327 325 315 319 324 326 326 323 323 323 322 321 321 320 320 319 317 319 319 318 317 317 316 316 316 315 315 315 314 314 314 314 314 313 313 313 312 312 312 311 311 311 311 311 310 309 310 310 309
331 331 330 330 329 329 328 329 328 326 327 327 325 325 324 323 324 323 324 324 324 324 324 324 325 324 325 326 327 326 326 326 325 325 324 325 327 326 324 315 319 324 326 323 323 323 323 322 321 322 321 320 319 319 318 318 318 317 316 316 316 315 315 314 314 314 314 313 313 313 312 312 312 312 311 311 310 310 310 310 309 308 308 309 308
332 332 330 329 328 327 328 327 326 326 326 325 323 323 323 323 322 322 323 323 322 322 323 323 323 324 323 323 323 323 323 323 323 323 324 325 325 325 324 323 316 319 323 324 323 323 324 323 321 321 321 320 320 319 318 318 318 317 316 316 316 315 314 314 313 312 312 312 312 312 312 311 311 311 310 310 310 310 309 309 309 307 307 307 307
330 331 329 329 328 328 327 326 325 323 322 322 322 321 319 319 319 318 318 319 320 320 320 320 321 321 320 321 321 320 320 320 321 321 321 322 323 323 324 324 324 316 317 320 324 324 323 323 321 321 321 320 320 320 319 319 318 317 317 316 316 315 315 314 313 312 312 312 311 311 311 311 310 310 309 309 308 309 309 308 307 307 306 307 306
330 330 330 329 329 328 327 325 323 320 320 320 320 319 319 318 318 315 313 316 319 320 319 320 319 319 319 318 317 318 317 317 316 318 319 320 321 321 322 322 323 323 322 317 318 322 325 322 321 321 320 320 320 320 320 320 318 318 318 317 317 317 317 316 315 314 313 312 311 311 310 310 310 310 310 309 308 307 307 307 307 307 307 306 306
328 327 327 327 327 326 325 326 327 322 319 319 320 319 319 318 317 317 317 317 319 319 318 319 318 317 317 315 315 313 311 311 311 312 315 316 316 317 318 320 321 322 322 321 314 314 321 323 321 321 320 321 320 320 320 320 319 319 318 318 318 319 318 317 316 315 314 313 313 312 311 310 310 309 309 309 308 307 307 307 307 307 306 306 306
329 327 326 326 326 326 325 325 325 322 319 318 319 318 318 319 318 317 316 317 317 317 317 318 317 316 314 311 310 308 308 308 309 311 310 310 312 312 313 316 318 320 317 320 319 317 314 319 322 321 320 321 321 321 321 321 320 319 318 319 319 319 318 317 316 315 314 313 312 311 310 309 309 309 308 308 308 308 308 307 307 307 306 306 305
332 331 329 327 327 327 327 327 326 323 320 318 317 319 317 317 317 317 319 317 316 316 316 316 314 312 309 307 306 305 306 307 308 308 305 305 308 309 309 311 313 309 316 316 319 320 314 313 319 320 319 320 321 320 321 322 321 320 319 319 320 319 317 316 315 315 314 312 311 310 310 310 309 308 308 308 308 308 308 307 307 307 306 306 305
332 331 330 331 330 328 328 327 327 325 321 317 315 315 315 316 316 317 317 317 314 313 313 313 312 309 306 303 302 303 304 304 303 300 302 304 305 306 308 308 308 309 310 313 316 318 319 315 312 314 313 317 321 321 321 321 321 321 320 319 320 320 318 316 315 314 313 312 311 310 310 310 309 309 308 308 308 308 308 307 307 307 306 305 305
333 332 329 330 329 327 327 326 325 324 321 317 312 311 313 314 316 316 315 315 313 312 312 310 307 305 303 303 302 302 301 299 299 300 301 302 303 305 305 304 304 304 306 308 310 312 315 318 318 318 318 314 320 320 321 321 319 320 321 321 320 320 319 317 316 315 313 313 311 310 310 309 309 309 308 308 308 308 308 307 307 307 307 306 305
332 331 330 330 330 329 327 327 326 325 323 318 315 314 312 313 314 315 313 313 311 309 309 306 304 302 300 300 300 300 300 299 299 298 299 301 302 302 302 303 302 302 302 303 305 307 309 313 314 318 317 316 315 318 320 320 319 320 321 321 321 320 319 318 316 315 314 313 312 311 310 309 309 308 308 308 308 308 308 308 307 307 306 306 305
331 332 332 329 331 329 327 325 325 325 322 318 317 316 314 313 312 313 313 312 310 307 305 304 302 302 301 300 300 300 299 299 299 298 298 299 300 300 300 301 301 301 301 302 303 304 306 308 310 314 316 316 316 312 315 317 319 320 319 319 320 321 320 319 318 316 314 313 312 311 310 310 309 309 308 309 308 308 307 308 307 307 306 306 305
331 332 331 330 328 328 327 326 322 321 321 322 320 314 312 311 311 310 311 311 310 307 303 304 303 304 305 304 303 303 301 299 299 299 299 299 299 299 299 300 301 302 301 301 302 302 303 305 306 309 311 312 316 317 314 313 316 319 319 318 320 321 321 320 318 316 314 314 312 311 311 311 310 309 309 309 308 308 308 308 307 307 307 306 306
334 330 330 329 327 326 325 324 322 320 319 320 320 316 313 312 311 311 310 310 310 308 305 306 306 306 306 303 302 302 305 301 301 301 301 301 300 298 298 298 300 303 303 302 301 301 301 302 303 304 307 308 309 311 314 310 312 312 317 318 318 321 321 320 319 318 315 314 312 312 312 311 311 309 310 310 309 309 308 308 308 307 307 306 306
336 335 332 331 329 326 325 324 323 322 321 321 320 316 314 311 310 310 311 306 306 305 304 305 308 304 301 301 301 299 300 305 306 307 305 303 300 299 298 297 298 301 302 301 300 300 300 300 301 302 303 303 303 306 311 315 312 307 309 311 313 319 320 321 320 320 317 316 314 312 311 311 311 310 309 310 310 309 309 308 308 307 307 306 306
334 333 330 330 329 328 326 325 325 324 321 320 319 317 314 311 309 308 309 308 306 306 303 303 306 309 309 299 296 295 299 306 303 307 306 304 303 302 299 299 300 299 299 301 299 299 300 299 299 298 299 300 302 305 308 311 313 310 310 303 306 313 317 319 320 320 319 317 316 313 312 312 311 311 310 310 310 310 309 308 308 307 307 306 306
335 335 334 330 330 330 328 328 328 326 322 320 319 318 316 313 311 310 309 310 310 309 305 302 303 306 309 310 310 305 304 304 303 302 300 304 306 306 304 301 299 299 298 299 299 298 298 298 299 299 300 301 303 304 304 305 306 309 310 312 309 310 312 317 319 320 320 319 317 316 314 312 311 310 310 310 310 310 309 308 308 307 306 306 305
331 332 332 333 332 332 331 330 328 325 321 320 318 318 317 314 312 311 310 309 309 308 307 303 301 302 304 307 307 301 303 303 303 305 303 300 299 303 304 303 300 298 297 297 298 299 299 297 298 299 300 301 301 301 300 300 302 304 308 311 315 314 312 313 315 316 319 319 317 316 316 314 312 311 310 309 309 309 309 308 308 307 306 306 306
329 330 331 330 330 330 330 329 328 326 323 320 319 319 318 315 312 310 310 309 309 308 308 304 300 301 301 303 305 306 303 301 300 303 304 301 305 300 298 300 301 297 298 298 298 298 298 298 298 299 299 299 299 298 297 298 300 301 303 308 314 315 315 315 313 313 317 318 319 318 317 316 315 313 311 310 309 309 309 308 308 307 306 306 306
327 327 327 327 326 327 329 327 326 326 320 322 320 320 319 317 314 311 310 310 309 309 309 308 304 305 304 302 303 303 303 301 300 297 297 298 300 303 303 297 294 295 295 297 297 298 298 298 299 298 297 297 298 298 297 297 297 299 302 306 311 316 316 316 313 312 311 312 315 315 317 317 315 314 314 312 310 310 309 308 307 307 306 306 306
324 324 324 324 324 323 323 325 326 327 321 322 322 321 321 319 316 313 311 310 311 310 309 310 308 306 307 305 301 301 301 301 300 298 297 297 296 300 303 302 297 296 295 296 296 297 297 297 297 297 296 296 297 298 297 296 296 297 299 302 306 312 316 315 314 312 311 311 312 313 314 314 315 314 314 313 311 310 309 308 307 307 306 306 305
321 322 322 322 321 322 321 322 322 318 318 320 320 320 320 319 318 315 312 311 310 309 308 308 309 308 306 306 306 303 301 301 302 301 300 297 296 297 298 301 303 303 302 299 298 297 296 296 296 296 296 296 296 297 296 296 295 296 297 300 302 306 311 314 314 313 312 312 312 312 313 313 312 313 313 313 312 311 310 308 307 307 306 305 306
316 317 318 319 319 320 321 321 321 320 320 321 320 320 320 319 318 316 314 312 311 310 309 307 307 308 308 307 307 308 305 305 307 305 301 300 302 301 302 303 302 302 305 301 298 295 295 295 295 295 295 296 295 297 297 296 296 296 296 297 300 303 308 313 315 313 312 312 311 312 312 312 311 311 311 311 310 311 310 309 308 306 305 306 305
313 313 315 316 317 317 317 318 318 319 319 320 321 321 320 318 317 316 315 313 311 310 309 308 308 307 308 309 309 308 308 307 307 306 306 305 303 301 302 304 301 303 303 299 297 296 296 295 295 295 294 295 296 297 297 296 296 295 295 296 298 300 303 308 312 312 311 310 310 311 311 311 310 310 310 310 310 310 309 308 307 307 306 305 304
316 316 316 317 316 316 316 316 317 318 318 317 318 318 319 319 318 316 315 314 313 311 310 309 309 309 309 308 308 308 307 306 305 305 304 304 303 301 301 301 299 299 301 294 295 293 293 293 295 294 294 294 295 296 297 296 295 294 294 294 296 298 300 303 308 310 310 309 309 309 309 309 309 308 308 309 308 307 307 308 307 306 306 304 304
316 317 317 316 316 315 315 315 315 316 316 316 316 316 317 317 317 317 316 316 314 313 313 312 311 310 310 308 307 308 307 306 306 305 305 304 305 304 301 297 297 299 299 299 295 293 297 298 294 294 294 294 294 295 295 295 294 294 293 294 294 294 298 301 305 309 310 308 307 307 307 306 306 306 304 304 305 305 306 305 306 305 305 304 303
315 315 315 314 314 314 314 314 314 315 315 315 315 315 315 315 315 315 314 315 313 312 311 311 310 310 309 309 307 307 308 307 306 305 305 305 305 305 303 301 297 295 299 299 300 296 296 298 297 296 296 294 295 295 293 293 294 293 291 293 293 293 295 298 302 306 308 308 306 305 305 303 302 302 301 301 301 300 301 301 301 301 301 300 299
313 313 312 312 312 312 313 313 313 313 313 313 313 314 314 313 313 313 313 314 313 312 312 310 310 310 309 309 308 308 308 308 306 305 305 304 305 305 305 303 301 297 294 295 298 300 301 295 296 297 296 296 295 295 294 294 293 292 291 291 292 292 294 296 300 304 306 307 306 305 303 302 301 300 300 299 299 299 300 300 299 297 297 297 298
311 312 311 311 311 309 310 311 312 312 312 312 312 312 312 311 312 312 312 313 312 311 311 310 309 310 309 309 308 307 308 307 306 306 305 304 304 304 304 303 303 299 297 294 295 301 302 297 297 299 296 296 295 294 294 293 292 291 291 290 290 291 293 295 297 301 303 306 306 305 304 302 301 300 299 299 299 299 299 298 298 297 296 296 296
310 310 309 309 309 309 310 310 310 310 311 311 310 310 310 310 310 310 311 311 310 310 310 309 309 309 308 307 308 307 308 307 307 306 306 304 304 303 302 303 301 300 299 297 294 298 303 302 299 298 297 294 294 294 294 294 292 291 290 289 289 290 290 292 294 297 300 303 305 305 304 303 301 301 299 298 299 298 298 297 296 296 295 295 296
308 308 307 308 308 308 308 308 308 309 309 309 309 309 309 309 309 308 309 309 308 307 308 309 308 308 307 306 307 307 307 306 304 303 304 303 303 303 302 302 302 301 300 298 295 295 302 302 304 300 297 295 293 292 292 292 291 289 289 289 288 288 288 289 291 294 297 300 303 304 304 304 301 300 298 298 298 297 297 296 296 295 295 296 296
306 305 306 306 306 307 307 307 307 307 307 307 308 308 307 307 307 307 307 307 306 306 306 306 307 307 306 306 305 306 307 305 303 301 301 301 300 300 300 300 300 300 298 296 294 295 299 303 302 302 297 294 290 290 289 289 289 288 288 288 288 288 287 287 288 290 294 298 300 300 302 302 301 298 297 296 296 296 296 295 295 295 295 295 295
304 304 304 305 305 305 305 305 305 305 305 306 306 306 305 304 305 305 305 305 304 304 304 303 303 304 303 302 302 303 304 303 303 301 300 299 298 298 298 297 297 297 298 296 295 294 294 299 297 292 291 291 290 290 288 288 288 288 287 287 287 287 287 287 287 287 292 295 297 298 300 300 300 298 297 295 295 295 296 295 295 294 294 295 294
302 302 302 303 303 303 303 303 303 303 303 303 304 303 303 302 302 303 304 303 303 302 301 301 301 301 301 300 300 301 303 301 300 300 301 300 299 298 298 298 297 298 298 297 296 294 294 296 299 299 296 289 288 289 288 288 287 287 286 286 285 286 286 286 286 286 290 293 295 296 297 299 298 297 296 294 294 294 294 294 294 293 294 293 294
300 301 301 300 301 300 300 300 300 300 299 300 300 301 301 301 300 301 301 301 301 301 300 300 300 300 300 299 299 299 299 298 299 299 300 299 298 298 297 297 297 297 298 298 297 296 295 295 297 297 298 290 289 290 288 287 286 286 286 286 286 285 285 285 285 285 287 292 293 294 296 297 297 296 295 294 294 293 293 293 293 293 293 292 292
299 299 299 299 299 299 299 299 299 299 299 299 299 299 300 300 299 299 300 300 300 300 300 299 296 299 299 298 299 300 300 299 298 298 299 298 298 297 297 297 297 297 296 296 295 295 294 293 294 296 293 291 290 288 287 285 285 285 285 284 284 284 284 285 285 285 287 290 292 294 295 295 295 295 294 293 293 292 292 292 293 293 292 292 292
297 298 298 298 298 298 299 299 299 298 298 299 299 299 299 300 299 299 299 298 298 298 299 299 299 299 299 299 299 299 299 298 298 299 298 297 298 297 297 296 296 296 295 295 295 294 293 293 293 293 292 289 287 285 286 286 285 283 283 283 283 283 283 283 283 284 285 286 289 291 293 293 293 293 293 293 293 292 292 292 292 292 291 291 290
296 296 297 297 297 297 297 298 298 298 298 299 299 299 299 299 299 298 298 298 298 298 298 298 298 298 298 298 298 298 298 298 298 298 298 298 297 297 297 296 296 295 294 294 294 293 292 292 292 293 292 291 288 288 286 285 285 284 282 281 280 282 282 282 281 283 284 286 290 291 291 290 291 290 291 292 292 292 292 292 292 291 290 289 289
296 296 296 296 296 297 297 297 297 298 297 297 298 298 299 299 298 298 298 297 297 297 297 297 298 298 298 298 298 298 298 298 298 298 298 297 298 297 297 297 296 295 294 294 293 292 291 291 291 291 292 292 290 287 286 284 283 283 283 282 280 280 280 281 282 281 282 284 286 287 289 289 289 290 291 291 291 291 291 290 290 289 288 288 288
296 295 295 295 295 295 296 296 296 297 297 297 298 298 298 298 298 298 298 297 297 296 296 296 297 297 297 298 298 298 297 293 293 294 295 296 298 296 297 297 295 294 294 293 293 293 292 292 291 292 291 290 290 287 282 282 281 281 283 283 282 281 280 280 281 282 282 283 284 285 285 286 286 286 287 287 288 289 289 288 288 288 288 288 288
295 295 295 295 295 295 295 295 296 296 296 297 293 292 292 294 296 296 297 297 297 296 296 295 296 296 297 297 297 292 291 291 291 291 292 293 293 295 297 297 296 294 292 292 292 292 292 291 291 291 290 289 290 289 284 283 283 284 283 282 281 281 280 279 280 281 282 283 283 282 283 285 285 285 285 285 286 286 286 286 286 286 286 287 287
293 294 294 294 295 295 295 295 295 296 297 296 292 293 293 293 293 295 295 296 296 296 296 296 295 296 297 297 298 295 292 291 292 290 292 292 292 292 292 293 294 295 293 291 291 292 291 291 291 291 290 289 290 289 287 285 284 283 283 283 282 280 278 277 275 280 283 282 281 281 281 284 285 283 283 284 284 285 285 285 287 287 286 287 287
291 292 292 292 293 293 294 294 294 295 295 292 293 293 293 293 292 294 295 295 296 296 296 296 296 296 296 297 297 298 297 297 297 297 293 291 291 292 292 292 292 293 293 293 292 291 291 290 290 290 290 290 290 290 288 287 283 283 283 283 281 280 279 278 278 277 281 282 280 280 280 283 283 283 282 283 283 284 283 285 287 286 286 286 286
289 290 291 291 291 292 293 292 292 293 293 292 292 292 292 292 292 292 294 295 295 295 296 296 296 296 296 296 296 296 297 291 292 295 296 295 292 291 291 291 291 292 293 294 294 292 293 291 290 290 291 290 290 290 289 287 285 283 283 281 281 281 280 279 279 280 280 282 281 280 279 280 282 281 281 281 282 282 282 285 287 287 286 286 286
289 289 289 289 290 291 291 291 291 292 292 291 292 292 291 292 292 292 294 294 294 295 295 295 295 296 296 295 295 295 296 296 296 296 296 295 294 294 293 292 292 291 291 292 292 291 291 291 291 290 291 292 290 291 290 288 285 283 282 281 281 281 280 280 282 282 282 283 280 280 278 278 280 280 279 280 281 281 281 284 287 286 286 286 286
288 288 288 288 288 288 289 289 290 290 291 290 291 291 291 292 292 292 293 294 294 294 295 295 295 295 295 296 295 295 295 295 296 295 295 293 292 291 290 290 291 292 292 292 292 292 292 292 292 292 292 293 292 291 290 288 287 285 285 283 283 283 283 283 282 283 282 283 282 281 277 278 279 279 279 278 279 279 280 284 286 286 286 286 286
287 288 288 288 287 287 288 288 288 289 290 290 290 290 291 291 292 291 292 292 293 293 293 294 294 295 295 295 295 294 294 294 293 292 292 293 291 289 289 289 289 290 290 291 292 292 293 293 293 292 292 292 292 291 290 288 287 286 286 285 285 284 282 280 279 279 278 281 282 282 279 276 278 278 278 278 278 278 279 281 285 286 286 286 285
286 286 286 287 287 287 287 287 287 288 289 289 289 290 290 291 291 290 290 290 290 291 292 292 293 293 294 294 294 293 293 293 292 293 293 291 290 289 288 288 288 289 289 290 291 292 292 292 292 293 293 293 294 294 294 293 288 287 285 283 282 283 281 278 279 277 276 280 282 283 281 276 277 278 276 276 277 278 278 279 282 285 285 285 284
285 286 286 286 287 287 286 286 287 286 287 288 288 289 289 290 289 289 289 289 289 289 290 291 292 292 292 288 289 292 292 292 292 292 292 291 289 289 288 288 287 288 288 290 289 289 290 291 291 291 291 292 292 293 293 293 290 288 284 282 283 283 280 280 278 277 277 278 280 283 279 276 277 278 275 276 276 276 276 277 279 282 283 283 284
285 286 286 286 286 286 286 286 285 286 286 287 288 289 289 289 289 289 289 288 288 288 289 290 291 292 292 290 288 289 291 291 291 292 292 290 289 288 288 288 287 287 288 289 288 288 287 287 287 288 288 289 289 289 289 291 290 287 286 286 285 283 280 281 279 276 275 276 279 283 278 276 276 277 274 272 271 272 274 275 276 278 279 279 280
Wind_Speed
6 6 5 6 5 5 5 5 5 4 5 4 4 4 4 4 4 4 4 4 4 4 4 4 4 4 6 6 6 6 6 6 6 5 6 6 7 5 2 3 6 8 9 9 8 12 10 10 9 8 9 11 10 12 12 11 11 10 10 10 10 10 10 10 10 9 9 9 9 9 9 9 9 9 9 9 9 8 8 7 6 7 9 7 7
6 6 6 6 6 6 6 5 5 5 5 5 5 4 4 4 5 4 4 4 5 4 4 5 5 4 5 7 7 7 6 6 6 6 5 7 8 6 3 4 5 7 8 10 11 12 11 10 10 10 10 10 7 10 10 9 9 10 10 10 10 10 10 10 10 9 9 9 9 9 9 9 8 8 8 8 8 8 7 6 6 4 6 7 6
6 6 5 6 6 6 6 5 6 5 6 5 5 5 4 5 5 5 5 5 5 3 5 4 5 4 4 5 6 5 6 6 6 5 6 6 8 8 6 5 6 8 9 12 12 14 12 11 11 12 12 12 11 11 10 10 11 10 11 10 10 11 11 11 11 11 11 10 9 10 9 9 9 9 8 8 7 7 6 6 6 3 4 7 6
6 6 6 6 6 7 6 5 6 6 6 5 5 5 4 4 3 2 2 3 3 3 4 5 5 5 4 4 3 4 4 5 5 6 7 7 7 7 7 8 7 8 8 12 13 15 13 13 13 14 13 13 13 12 12 12 12 12 12 11 11 11 11 10 10 8 8 10 11 10 10 9 9 9 8 8 8 7 6 5 6 3 3 4 3
6 6 6 6 7 7 7 6 6 5 5 5 5 4 4 4 4 3 3 3 4 5 3 4 5 4 4 4 3 4 3 3 4 5 6 6 7 7 7 8 9 7 10 9 13 12 14 15 12 13 13 13 13 12 13 13 13 13 13 13 12 11 10 10 11 11 11 9 7 8 9 9 8 7 7 6 4 6 7 6 3 5 1 3 2
6 6 7 7 7 7 7 6 6 7 6 5 6 6 6 5 4 3 4 5 6 6 5 6 5 4 5 4 4 3 3 3 3 4 4 5 5 5 6 6 8 9 8 10 10 11 11 13 13 14 13 13 13 13 14 15 15 14 14 14 14 13 12 13 12 12 12 11 10 9 8 9 9 9 8 8 7 5 4 4 4 4 2 2 2
7 6 6 5 5 6 8 7 5 6 6 7 7 7 7 8 7 7 6 7 7 7 7 6 6 6 5 4 5 3 2 3 2 3 3 3 4 3 3 4 7 8 8 8 8 11 10 12 15 14 14 15 14 15 15 16 16 16 15 16 15 16 15 16 14 13 13 12 12 13 13 11 10 9 9 9 8 7 5 5 5 4 3 2 2
10 9 7 7 6 7 8 7 8 7 7 6 7 7 7 7 7 8 8 9 8 7 6 7 7 6 4 3 2 2 3 3 3 4 3 2 4 4 3 4 5 6 6 7 8 10 10 10 13 15 16 16 16 16 17 17 17 17 16 17 17 17 17 16 15 15 15 14 13 13 11 11 10 10 9 9 9 9 8 7 6 5 4 3 1
13 13 10 10 10 10 10 10 9 9 8 7 7 7 6 6 7 9 9 8 7 7 6 6 5 4 3 2 1 2 4 4 4 3 1 4 4 4 4 4 4 4 4 5 7 8 11 12 11 14 13 15 18 18 18 18 18 18 17 18 18 17 16 16 15 15 15 14 14 14 13 13 13 11 10 10 10 9 9 8 7 7 6 5 4
11 10 10 10 10 9 8 9 8 8 7 7 6 5 5 7 8 8 8 7 6 6 7 6 3 3 2 2 2 3 4 3 2 2 3 4 4 5 5 3 3 3 4 4 5 6 7 10 12 11 14 13 17 19 20 20 19 19 19 19 18 18 17 16 15 16 15 15 15 14 15 14 14 13 12 12 11 11 9 10 8 7 7 6 6
14 10 7 8 7 6 7 7 7 8 7 7 5 6 7 8 10 8 7 6 3 4 5 3 2 2 2 4 3 4 3 2 2 4 4 5 4 5 3 5 4 4 4 4 4 5 6 7 8 8 10 15 17 19 22 21 20 21 20 20 20 20 19 18 19 17 15 15 15 15 15 14 14 13 13 13 12 12 10 9 9 9 8 7 7
14 11 11 13 13 13 11 9 9 9 11 8 9 10 11 11 11 9 7 6 2 2 2 3 1 1 2 4 4 4 5 4 5 4 4 6 5 4 5 4 5 5 4 3 4 5 5 6 6 7 9 13 18 18 19 18 18 22 21 21 21 21 21 20 18 17 16 16 16 16 16 16 15 15 15 14 13 13 11 10 10 10 9 8 8
11 13 13 14 14 10 8 7 9 12 12 10 11 10 9 8 6 5 8 8 6 3 2 4 3 3 3 5 6 4 6 6 7 6 6 6 4 4 5 5 6 6 5 4 5 5 5 6 6 7 6 7 10 17 17 16 17 22 23 22 23 23 23 22 20 18 17 17 18 17 17 16 16 16 16 15 14 13 12 11 11 10 10 8 9
9 11 11 12 9 8 9 10 8 7 9 9 8 9 7 7 5 5 7 10 8 7 5 7 4 8 5 4 6 6 9 7 8 10 9 7 6 6 6 7 8 7 5 5 6 5 5 5 5 6 5 6 9 10 12 11 13 21 24 23 25 24 24 24 22 21 19 19 20 19 18 18 17 17 17 16 15 14 13 13 12 11 10 10 9
9 8 9 8 8 7 7 7 8 9 8 10 12 9 9 12 11 10 8 7 7 5 8 11 7 3 2 3 7 5 5 6 8 13 11 10 6 7 7 7 10 8 7 6 6 6 5 5 6 7 7 6 7 8 8 12 13 17 21 22 22 26 26 25 24 24 24 21 22 21 21 20 19 19 18 18 17 15 15 13 13 12 11 11 11
11 11 12 13 13 12 9 8 8 9 9 10 13 10 9 10 10 11 8 6 7 7 9 9 7 8 3 8 2 1 7 8 9 11 13 13 10 10 7 8 7 9 7 8 8 6 5 4 7 7 6 7 6 6 8 10 14 14 19 21 20 24 27 27 26 26 25 23 23 24 23 21 21 20 20 19 19 17 16 14 13 13 12 12 12
8 8 7 8 10 12 10 9 9 11 10 9 9 9 10 9 11 10 10 10 8 7 7 9 10 10 8 4 1 2 9 5 2 6 6 9 14 13 10 11 13 10 8 10 7 6 4 5 5 4 7 6 7 8 8 9 8 11 14 19 21 20 25 28 28 27 26 26 25 23 22 23 23 22 21 21 20 18 17 16 15 14 14 13 13
9 8 8 7 7 8 8 8 9 8 7 6 9 8 9 10 10 11 13 12 11 9 7 7 11 10 10 7 5 7 4 2 2 6 3 6 7 11 12 11 10 10 8 8 8 7 8 10 10 11 9 9 9 8 8 7 10 11 10 13 21 22 19 22 28 29 28 29 27 25 25 24 23 23 22 22 21 20 18 17 16 15 15 14 14
12 13 13 12 11 11 11 12 12 11 8 8 8 10 8 9 8 10 11 11 11 10 9 8 6 9 9 12 9 4 3 3 8 5 9 3 6 9 11 13 10 13 13 13 13 9 9 10 11 11 12 9 8 7 5 7 12 13 18 16 18 18 22 21 22 26 28 27 28 27 27 25 24 24 23 23 22 21 19 18 17 16 15 15 15
10 10 10 10 9 9 8 9 10 10 8 9 10 10 8 8 8 9 7 7 10 11 7 6 9 10 10 14 13 9 7 6 4 7 9 11 8 4 5 9 7 8 15 14 14 14 13 11 12 13 10 7 8 6 6 8 7 7 12 16 20 19 19 18 22 23 25 28 32 29 29 28 27 25 24 23 23 22 21 19 17 17 16 15 15
8 9 8 6 6 7 7 7 7 8 6 7 9 9 10 11 11 10 11 11 11 12 11 10 10 12 8 12 11 9 8 9 7 2 8 10 14 12 10 2 4 6 8 11 11 14 13 14 13 13 11 8 9 9 7 7 7 7 9 17 20 22 23 22 23 25 26 25 26 30 29 29 28 27 26 24 24 23 22 20 18 17 16 16 15
7 7 7 6 6 5 6 6 7 7 7 8 9 10 10 10 11 10 11 13 11 12 14 12 11 10 10 6 8 9 9 9 9 8 6 8 13 11 10 10 11 7 11 12 14 13 15 12 12 13 13 9 10 10 9 8 8 10 14 17 17 22 25 25 26 28 26 25 25 26 30 33 30 28 26 26 25 24 23 22 19 18 18 19 19
7 7 7 6 6 6 6 6 5 4 3 4 6 8 8 9 10 12 12 11 9 9 11 12 9 7 10 7 9 10 11 12 13 11 10 11 11 12 12 14 14 12 9 11 11 11 9 9 10 11 13 9 10 10 8 9 14 15 19 17 18 20 22 24 25 27 29 28 26 25 23 27 29 31 28 26 24 24 24 22 20 20 21 19 18
6 6 7 8 7 7 7 8 7 6 6 5 6 6 6 7 8 9 10 10 9 11 9 11 12 8 9 8 10 10 10 11 9 8 9 11 13 14 8 9 11 11 4 4 6 9 10 13 12 11 14 10 10 12 11 10 11 22 18 20 19 21 22 24 26 25 21 22 28 25 23 24 24 25 27 26 25 24 24 24 23 22 23 22 23
6 7 8 9 8 8 8 8 8 9 9 9 10 10 8 7 8 11 11 12 9 10 9 10 9 11 11 11 11 11 12 10 7 5 7 6 7 13 14 10 14 11 6 5 7 6 9 11 12 13 12 12 10 12 12 10 13 18 22 16 20 20 21 24 26 26 17 18 17 21 23 23 24 25 26 26 28 26 25 24 22 20 21 22 20
7 7 6 7 7 8 8 8 8 9 9 9 9 10 11 10 9 9 10 10 9 9 11 12 11 14 11 9 10 8 9 6 7 6 12 11 11 12 13 9 9 15 7 3 3 4 6 10 11 11 9 11 11 13 11 14 11 20 22 18 16 20 20 22 22 24 22 19 18 19 21 22 22 20 20 21 20 22 23 22 20 20 19 20 21
5 5 4 5 7 7 7 8 8 9 9 9 8 9 10 10 10 9 8 7 9 10 11 13 14 14 11 10 11 11 9 8 8 9 8 10 12 8 10 14 13 12 11 7 5 13 11 8 10 11 12 12 13 12 13 11 15 21 20 17 14 19 17 21 23 25 25 20 20 19 19 19 19 20 20 20 21 21 20 20 19 19 18 19 20
4 4 4 4 5 6 7 8 8 8 9 9 9 8 9 10 10 9 11 7 8 10 10 10 13 13 13 11 10 12 10 8 7 7 8 9 9 9 8 12 13 18 12 13 12 11 12 13 7 12 11 12 12 12 15 17 12 19 20 14 14 15 19 23 25 24 26 24 22 21 21 20 20 21 21 21 21 21 20 20 19 18 15 10 6
4 3 4 4 5 6 6 7 8 8 9 9 9 9 9 9 9 11 12 8 8 10 9 9 9 10 10 12 12 12 12 8 8 8 9 8 9 10 9 13 12 13 15 13 17 11 9 14 9 9 13 11 11 10 11 13 16 18 14 14 15 15 14 23 25 25 26 28 28 25 22 22 22 23 22 21 21 20 19 17 12 7 6 7 8
5 6 5 5 7 6 6 7 7 9 9 9 9 9 9 9 10 10 11 9 10 9 9 8 8 9 10 10 10 10 9 9 10 11 10 9 9 9 9 12 10 13 13 14 20 9 8 8 9 6 9 11 10 9 10 12 17 16 14 12 14 15 16 20 23 26 26 28 27 25 26 24 24 23 22 22 22 20 18 16 14 12 11 11 12
5 6 6 6 6 7 8 8 8 8 9 9 9 8 9 10 10 10 10 11 11 12 11 8 8 8 9 10 10 12 12 11 12 12 11 11 11 10 11 10 11 12 13 13 16 17 7 12 6 9 6 9 7 8 7 9 11 15 13 13 14 15 19 16 20 21 24 27 26 26 26 26 24 24 24 23 22 22 19 18 16 14 13 13 13
5 5 5 6 7 7 7 7 8 8 8 8 8 9 9 10 10 10 10 10 12 11 12 12 10 10 12 13 13 14 10 9 9 10 11 12 13 13 11 11 12 13 13 14 16 26 10 8 10 7 12 7 6 6 7 6 10 13 12 11 13 15 12 12 17 23 25 28 30 30 29 28 27 27 25 24 23 21 21 20 16 15 14 14 14
5 5 6 6 7 7 7 7 7 8 8 8 8 8 9 11 10 11 11 11 11 10 10 12 10 12 13 13 13 13 12 12 9 9 10 10 10 11 11 11 12 10 11 13 15 17 15 10 9 8 4 6 6 7 10 6 7 8 12 7 8 9 11 11 13 22 27 29 27 28 30 29 27 28 25 25 23 24 22 19 17 16 16 16 17
4 5 6 6 6 7 7 7 7 8 8 9 9 9 10 10 11 10 10 11 11 12 10 12 10 9 9 11 12 12 11 12 12 12 10 10 10 10 11 11 12 11 10 11 15 15 21 13 8 1 3 6 8 7 10 8 9 7 9 7 6 8 9 9 10 14 25 28 20 24 25 27 29 29 25 24 24 21 19 19 18 17 16 17 17
3 4 4 5 6 6 7 7 7 7 8 9 8 9 10 10 11 11 11 11 11 11 11 11 10 9 11 11 13 12 10 11 12 12 12 12 11 12 13 11 13 13 12 14 13 16 19 18 9 10 9 6 10 7 8 7 8 6 8 9 9 10 10 9 10 11 19 25 27 28 29 30 30 32 26 23 20 18 17 18 17 16 18 17 18
4 3 4 4 5 6 6 7 7 8 8 8 9 9 11 11 11 12 12 12 12 11 12 11 10 10 11 11 13 11 11 12 13 12 11 10 11 11 12 11 12 14 13 14 16 16 16 17 16 10 9 7 9 6 4 4 6 7 9 7 5 7 8 10 12 11 12 23 29 30 32 29 30 29 25 22 18 17 16 16 15 17 18 18 19
3 4 3 3 4 4 5 6 7 8 8 9 9 9 9 9 10 11 12 12 11 11 11 11 11 11 12 12 13 12 11 12 13 12 11 12 11 11 12 11 12 12 11 11 12 13 15 18 18 11 6 7 5 5 5 6 6 6 6 8 8 8 8 8 8 9 12 25 28 29 26 29 27 28 26 23 21 20 18 17 17 18 18 19 19
3 3 3 3 3 5 5 6 6 7 8 8 9 10 10 9 10 11 11 10 11 12 12 12 11 11 12 13 13 12 12 13 14 13 12 13 11 12 13 12 12 11 12 12 12 13 14 16 16 16 8 9 6 5 6 7 7 6 6 6 3 8 6 6 10 9 9 10 13 16 19 20 26 30 27 24 21 20 18 19 19 18 18 16 18
4 4 3 4 3 4 5 5 6 7 7 7 8 8 9 10 11 11 11 12 12 11 12 13 12 12 12 13 13 13 13 14 14 14 12 13 12 13 13 13 13 11 12 12 11 13 14 15 15 14 13 9 9 10 6 8 5 5 7 6 7 7 8 9 7 7 7 10 12 16 14 15 17 15 20 19 19 19 19 20 19 19 17 18 19
4 5 5 5 4 4 5 5 6 6 7 7 8 8 8 9 9 10 11 12 13 13 13 12 12 12 14 14 13 14 14 14 14 14 13 13 11 13 12 11 12 12 12 11 11 12 12 13 14 14 11 12 8 6 2 6 8 8 7 7 11 12 9 8 10 9 9 10 11 10 12 12 14 15 19 18 20 21 22 19 20 17 17 20 18
3 4 4 5 5 5 5 5 6 6 6 7 6 6 7 9 9 10 11 13 13 13 13 13 13 14 14 14 15 16 15 17 19 18 17 14 11 12 13 11 12 12 12 11 11 11 12 12 14 12 11 12 11 8 7 9 12 12 9 11 10 3 5 7 9 9 10 8 8 11 10 9 9 9 9 9 11 17 18 18 13 18 21 20 19
5 4 5 5 4 5 6 6 6 5 6 6 8 11 11 9 10 9 9 11 12 13 13 14 14 14 15 15 15 18 19 19 20 21 21 21 21 18 16 12 12 12 12 12 12 12 11 12 14 12 12 14 13 11 9 10 6 3 6 8 12 6 6 7 4 7 8 11 10 11 8 10 9 9 10 12 10 12 8 10 9 12 18 20 18
7 6 6 6 6 6 6 6 7 6 6 6 11 11 13 15 11 11 10 11 11 12 13 14 15 14 13 15 15 16 16 16 18 21 21 23 23 24 26 25 20 16 12 13 13 11 11 12 12 12 14 16 15 10 11 9 10 10 10 10 10 9 11 12 13 8 7 11 13 10 12 10 10 13 11 10 8 7 8 8 17 22 21 20 18
6 6 7 7 7 7 6 7 7 7 7 10 14 14 14 15 14 11 11 10 10 11 11 12 12 12 13 12 12 10 11 14 15 15 17 21 23 25 26 25 25 26 24 18 15 13 12 12 13 15 14 15 14 9 10 8 7 11 12 11 10 10 10 11 9 12 10 18 13 12 11 9 7 10 12 9 8 9 9 14 23 21 20 19 17
5 6 7 7 8 7 8 9 9 9 9 10 12 14 15 16 17 14 10 11 11 12 12 12 13 13 13 12 13 12 12 14 13 14 15 15 18 22 24 25 25 26 25 27 27 20 14 14 14 16 16 14 13 13 10 11 10 13 10 10 8 8 10 11 10 8 8 17 11 9 10 11 13 13 14 8 11 9 10 19 23 21 20 19 19
5 7 5 8 8 8 8 9 10 9 9 10 13 14 15 17 17 15 11 12 12 13 14 14 13 14 14 13 13 12 12 12 13 15 14 14 14 13 14 14 15 19 23 27 27 27 22 17 15 18 17 12 14 13 9 10 12 13 11 13 13 10 10 17 19 7 5 13 16 12 7 10 12 12 9 6 10 8 6 16 23 21 19 20 21
6 6 7 7 7 6 9 8 10 11 9 12 14 15 15 17 17 15 12 12 12 13 14 14 15 15 16 14 14 15 15 14 12 13 13 12 12 12 13 14 15 14 15 15 16 15 15 16 17 18 20 16 14 13 10 10 15 15 16 18 19 19 15 6 2 6 8 10 11 12 10 8 10 11 9 7 8 7 6 16 22 21 20 22 21
6 6 6 5 8 9 7 7 10 12 11 11 13 15 15 15 17 11 11 12 13 13 14 15 15 14 14 14 14 15 16 16 16 17 16 14 12 15 16 15 14 14 15 16 16 16 17 16 16 16 16 16 17 14 12 10 11 11 9 6 6 6 6 9 11 7 8 11 17 12 7 7 10 8 7 7 7 8 8 9 18 21 23 22 20
7 7 7 7 6 8 10 8 8 11 12 10 11 14 15 15 13 9 9 9 11 13 14 14 14 14 14 13 14 15 18 19 18 17 16 16 13 16 16 16 15 15 15 13 14 20 24 24 24 24 24 23 23 22 21 21 15 12 8 9 11 10 11 10 10 9 8 12 12 14 9 8 9 9 8 7 7 10 9 9 7 18 21 19 18
9 8 8 9 8 6 8 11 9 9 13 16 15 14 16 15 12 10 9 10 11 11 12 14 14 13 14 18 15 15 17 18 19 19 19 15 13 15 15 16 17 17 16 12 8 12 20 22 24 25 24 23 23 23 23 22 22 18 13 16 14 11 12 11 11 9 7 8 11 10 9 7 10 9 8 6 6 4 5 4 4 10 17 15 17
9 8 7 8 10 9 9 10 14 13 13 16 17 14 14 15 12 7 9 10 11 11 11 13 13 13 13 13 17 16 16 18 22 21 19 15 13 13 14 14 17 18 17 11 10 12 11 11 12 13 15 18 17 15 14 21 22 20 17 17 11 13 12 10 8 7 6 6 11 13 10 8 11 9 11 8 4 2 1 4 5 6 9 8 9
Wind_Direction
189 188 192 197 192 194 200 199 196 189 187 194 190 190 190 195 194 196 196 195 189 196 197 197 204 200 210 199 200 210 199 190 176 176 178 180 179 164 200 177 184 196 195 200 176 165 180 177 179 178 176 177 160 158 161 162 169 169 167 165 162 162 156 157 156 150 148 148 145 141 138 138 135 132 132 128 123 120 117 113 84 94 110 85 55
186 188 191 194 194 199 207 203 198 193 194 201 198 200 197 196 203 203 204 202 201 200 203 199 210 208 213 211 210 211 200 189 181 186 187 197 203 168 183 215 232 224 197 177 181 187 181 178 188 176 192 173 188 175 178 181 177 178 177 175 172 169 168 166 166 161 154 154 154 150 147 146 144 142 140 138 134 130 124 117 111 70 99 98 84
195 190 186 193 194 202 209 203 201 197 199 203 192 202 201 204 206 208 210 210 213 196 210 209 208 209 214 219 212 211 203 195 188 190 196 201 211 198 179 198 235 253 190 188 188 200 178 180 195 182 195 187 185 189 188 189 187 187 186 184 179 177 176 176 173 170 168 166 163 161 158 155 156 155 151 149 147 142 134 129 127 124 89 118 121
202 192 194 191 198 204 209 199 207 198 198 198 185 194 199 200 199 230 228 224 218 208 216 220 212 209 208 219 223 221 207 199 198 196 202 202 203 198 188 191 213 247 209 200 200 219 168 198 198 191 197 190 192 194 194 194 192 193 194 191 191 186 184 183 190 181 181 176 173 172 169 167 166 166 162 161 161 153 152 144 135 131 82 93 73
202 201 197 199 200 203 209 201 205 193 193 187 176 177 185 191 193 194 212 225 225 214 207 229 220 210 207 212 218 227 231 223 214 211 213 209 205 204 199 191 200 212 217 214 218 222 195 203 201 204 202 195 199 198 201 201 198 197 198 199 196 192 190 189 191 193 190 187 187 179 177 176 179 174 178 176 160 166 170 171 148 134 139 92 66
204 202 206 212 206 204 208 206 202 181 182 181 195 193 197 196 185 181 209 217 218 218 210 218 219 214 211 201 218 221 223 233 243 239 237 222 223 219 203 196 212 215 205 227 254 240 216 209 203 207 203 205 204 202 205 205 204 202 203 204 201 194 192 191 194 199 197 195 192 190 194 189 187 186 185 186 184 177 178 161 174 161 150 118 224
195 198 201 206 207 209 217 223 216 196 181 188 195 199 201 197 189 198 203 218 224 216 211 216 214 214 215 203 213 215 235 246 266 263 251 260 262 254 242 213 212 214 214 214 223 226 218 212 210 207 207 207 209 209 212 209 205 206 205 207 200 192 194 192 196 199 202 200 197 196 198 199 196 198 196 194 195 191 199 198 179 185 162 201 287
199 199 202 204 205 208 210 207 203 200 202 190 196 201 204 203 200 198 202 212 213 215 211 215 208 206 201 207 212 206 240 247 240 245 264 282 257 269 249 235 225 212 200 217 216 209 216 226 212 211 209 210 214 217 215 214 212 213 209 208 211 201 200 200 192 204 205 202 202 208 201 204 201 199 204 198 200 200 199 203 193 195 202 205 236
205 203 202 202 208 213 212 205 199 197 197 199 202 210 203 201 208 212 220 220 210 217 217 223 215 199 179 203 226 221 229 231 241 246 318 256 263 262 267 258 259 269 231 229 221 211 209 221 217 210 213 217 216 219 215 218 215 213 213 212 214 214 208 208 209 210 209 208 208 208 208 206 208 205 208 205 207 204 204 204 202 203 206 198 215
211 202 212 211 213 216 215 207 202 200 195 190 192 193 205 207 220 215 219 226 213 209 212 214 205 206 209 210 223 236 242 240 242 271 248 247 243 244 247 265 257 242 249 244 242 232 216 218 222 223 214 218 225 218 223 220 219 214 216 218 217 219 216 212 215 215 213 213 213 215 214 213 210 210 208 210 209 210 213 207 210 210 209 204 230
212 204 197 209 214 215 214 193 189 199 195 197 190 193 200 212 219 213 203 216 219 219 227 192 157 184 247 241 231 240 267 287 295 258 242 239 248 251 255 250 250 250 247 247 246 246 246 225 213 217 217 215 223 222 217 223 222 220 219 215 216 218 215 214 214 214 213 216 216 222 220 220 217 215 214 211 213 211 217 210 212 215 213 215 224
207 197 205 218 227 226 217 206 208 206 213 195 206 209 209 205 210 210 197 207 214 207 176 142 124 212 262 271 260 257 246 246 248 249 256 247 236 238 244 241 242 244 234 233 241 246 246 252 233 217 218 214 218 225 228 226 221 219 217 221 221 222 222 216 215 214 208 218 219 224 224 223 223 220 219 216 216 213 216 214 216 219 223 219 228
209 211 210 218 225 218 202 192 204 216 215 206 204 206 206 205 207 198 203 209 212 180 135 117 130 240 231 269 273 250 259 252 253 250 240 246 240 231 240 249 242 239 233 222 227 226 235 236 245 238 228 227 218 225 231 230 222 220 223 223 222 221 224 220 213 215 207 214 222 223 226 227 227 224 223 221 220 219 216 218 218 224 224 225 231
208 206 212 220 216 216 213 206 187 193 211 215 208 201 182 195 186 207 208 214 219 172 158 134 211 221 221 248 256 242 234 231 239 243 237 228 220 233 231 234 240 240 238 234 232 227 228 235 238 246 245 236 235 217 223 231 228 221 226 226 225 225 224 224 216 216 208 214 222 223 224 225 226 229 227 224 223 222 220 221 222 226 228 228 231
207 213 219 216 216 215 216 204 194 197 208 219 225 207 197 203 198 208 204 213 234 182 183 192 219 166 53 340 269 277 231 222 223 237 228 224 206 222 226 231 237 235 235 238 240 229 221 221 230 233 237 230 237 243 232 226 222 213 217 224 227 227 226 224 221 222 212 210 222 221 220 220 223 226 229 228 225 222 222 221 224 227 230 230 231
234 219 217 218 211 208 203 206 210 205 209 212 222 208 193 197 198 204 202 184 204 208 192 201 216 130 221 216 263 13 291 246 228 232 213 215 206 222 213 222 222 229 233 238 237 230 221 206 225 230 237 241 234 238 238 229 219 211 212 218 222 222 228 227 223 223 217 211 216 221 223 221 222 222 225 227 226 224 223 222 223 226 229 232 232
220 214 215 212 208 210 202 204 209 213 210 209 205 199 193 187 191 196 200 210 209 214 194 198 211 202 204 111 106 256 234 278 17 261 166 210 220 218 219 226 228 224 222 234 230 234 218 216 226 233 241 240 234 229 234 234 226 219 220 222 224 225 227 229 225 221 218 219 218 222 223 223 224 223 223 226 227 223 222 223 223 225 228 230 234
222 218 199 192 200 207 212 212 218 219 212 212 226 222 212 205 199 199 209 210 217 213 208 201 221 226 239 240 210 222 179 204 110 268 148 231 232 224 225 219 225 230 228 234 230 229 237 241 230 229 225 224 224 226 228 234 230 225 219 220 222 228 230 234 234 227 222 218 219 215 217 225 228 227 226 226 226 224 222 221 223 224 227 229 234
251 255 260 257 250 240 233 229 223 217 203 209 217 217 198 194 195 203 210 205 205 224 204 196 194 242 238 243 240 208 234 172 238 279 279 183 216 228 226 226 210 220 229 229 233 231 228 233 236 233 231 220 223 225 226 237 238 239 228 222 218 220 225 227 234 237 236 229 220 217 217 220 223 227 228 228 227 226 222 220 221 224 226 228 234
248 250 251 253 250 245 233 227 221 212 198 209 214 216 211 205 202 204 209 209 210 224 216 181 193 229 207 228 235 235 211 255 277 265 276 286 252 207 246 249 221 220 234 237 234 230 233 227 232 234 231 223 227 225 224 226 227 231 233 230 223 219 218 218 224 230 238 233 227 224 224 219 212 217 226 231 230 229 224 219 220 223 226 229 232
239 241 235 231 231 235 223 217 222 226 212 216 217 213 210 206 204 205 208 213 210 214 221 215 202 228 191 221 229 231 233 241 253 222 246 259 266 256 257 181 258 238 238 232 235 233 231 232 230 234 237 232 227 226 222 223 223 227 229 228 225 223 220 218 220 224 229 237 242 236 226 220 218 214 212 220 230 230 227 221 220 223 225 229 231
239 239 242 240 241 241 250 244 232 221 202 208 214 215 216 216 210 202 204 212 213 211 216 221 215 220 221 191 204 234 243 247 234 228 242 221 261 260 256 254 252 219 214 225 229 226 230 231 234 236 236 233 226 226 221 221 222 232 235 231 228 228 225 221 220 222 225 227 229 233 237 235 223 220 216 217 221 227 229 227 224 225 226 227 232
245 245 242 245 245 246 245 246 252 261 243 221 219 218 219 217 211 210 213 213 215 214 224 234 232 218 222 217 218 203 207 213 220 214 217 235 248 257 252 248 252 263 208 213 219 222 214 220 228 229 232 224 222 223 215 219 229 231 235 232 231 232 231 226 222 222 224 224 225 229 233 241 238 227 226 222 221 222 226 230 228 226 231 237 237
248 249 248 246 248 250 249 253 252 249 248 238 224 217 222 218 219 218 219 216 216 221 227 233 232 236 233 217 227 225 223 229 229 210 203 232 241 259 251 255 253 241 246 222 219 225 211 219 221 224 229 226 219 221 226 225 229 232 230 231 229 231 233 230 226 223 220 221 225 226 228 231 237 228 224 222 226 225 230 232 232 232 238 238 241
242 244 246 243 246 248 248 249 250 252 256 259 258 251 233 220 220 222 224 220 208 208 217 222 211 224 228 227 225 226 231 229 230 224 237 234 234 262 263 260 268 268 241 206 234 219 217 219 218 222 219 217 217 222 224 216 226 228 227 231 227 230 231 232 230 225 213 212 210 217 219 221 221 225 225 225 229 231 231 233 233 236 238 242 248
260 248 241 242 240 240 243 245 247 251 248 249 250 251 250 244 235 230 227 225 216 207 222 228 227 229 228 228 223 225 232 221 225 228 241 246 249 247 267 259 247 270 257 216 202 237 222 220 219 223 216 221 222 220 221 223 220 228 225 225 224 223 228 232 231 228 216 206 204 205 206 209 208 208 209 212 216 223 225 226 228 230 234 237 239
242 249 240 232 250 252 248 248 246 243 243 242 242 244 246 248 249 245 242 223 221 224 228 228 233 237 236 237 243 240 236 225 223 229 218 223 238 242 247 266 268 252 261 234 211 215 235 220 207 220 218 221 223 220 219 216 222 226 225 226 233 229 230 232 234 230 223 206 206 204 200 199 199 199 203 207 211 213 218 221 225 228 230 232 237
260 257 255 247 248 248 253 254 256 256 253 253 252 251 249 250 250 247 245 226 224 230 235 232 238 239 239 240 239 242 239 231 225 228 230 233 230 237 230 246 263 277 265 271 256 251 194 236 201 208 215 216 221 220 222 226 229 224 222 222 226 230 226 229 231 230 227 218 209 207 206 200 199 201 202 204 210 211 212 216 221 228 234 242 246
272 270 262 251 248 251 254 251 254 259 256 253 253 254 255 254 253 253 253 242 227 234 236 231 234 235 233 233 236 244 245 232 228 224 232 228 235 243 233 241 245 255 276 271 270 255 234 194 236 211 199 216 218 216 223 219 223 222 219 218 223 227 220 223 226 227 226 222 217 212 206 204 202 202 201 201 203 204 204 205 204 196 199 216 231
286 281 279 275 274 262 258 260 260 261 258 256 254 253 254 255 255 255 255 253 249 244 239 239 237 235 238 239 237 244 241 246 244 242 239 234 234 232 239 239 234 243 252 265 277 246 254 199 214 225 181 212 207 212 211 217 220 214 214 210 220 224 219 219 221 224 225 222 218 210 212 208 203 200 199 196 194 194 196 194 196 203 213 223 230
293 291 287 282 274 270 267 267 266 263 261 259 257 256 253 257 258 259 256 252 251 254 252 239 240 238 238 237 235 242 244 245 249 247 239 238 241 238 240 237 236 235 247 258 272 270 168 259 212 224 214 195 200 209 206 218 212 210 213 215 219 217 216 218 221 224 228 225 221 212 209 213 204 197 196 193 193 191 190 196 196 198 207 219 224
296 294 285 278 273 271 270 268 268 267 266 264 262 259 259 258 260 260 259 255 253 252 256 254 253 249 252 248 244 245 243 246 248 247 244 235 234 234 223 221 227 228 236 244 244 270 238 239 270 230 226 212 190 204 221 219 217 207 216 216 217 217 216 220 220 220 224 226 222 220 218 211 209 200 191 191 191 186 192 194 194 198 207 213 222
294 287 283 277 277 276 276 274 273 274 274 274 270 266 262 265 264 264 265 261 257 257 256 257 250 253 255 254 250 250 250 250 243 247 243 241 236 237 239 239 241 232 228 237 251 263 274 243 255 259 202 185 226 192 215 203 200 209 217 207 195 202 214 217 218 219 221 223 220 220 221 221 214 209 193 189 187 189 191 190 192 198 205 218 223
301 294 288 288 284 285 284 283 282 281 281 280 278 270 267 268 268 265 265 262 260 259 257 259 256 252 255 255 256 254 249 250 249 244 240 241 234 236 235 230 238 235 221 234 247 258 271 273 239 146 211 184 237 174 202 196 211 192 204 198 197 201 210 209 213 219 220 222 210 214 217 218 215 211 197 186 188 189 186 187 191 197 205 215 217
305 295 298 298 295 289 288 286 286 284 280 278 276 271 268 267 268 268 264 263 259 258 258 257 258 256 254 253 256 255 253 252 247 246 242 241 236 234 237 228 235 235 227 226 240 252 260 266 244 249 239 200 218 207 205 217 204 165 199 202 203 210 215 207 213 220 220 221 216 217 219 216 211 207 196 185 180 182 184 188 192 197 210 211 218
308 304 301 301 299 297 292 289 286 283 281 275 275 273 271 271 270 269 268 263 260 257 259 262 261 257 254 258 256 254 253 251 251 249 245 240 239 241 243 237 236 239 231 229 228 241 255 265 265 244 253 210 231 224 162 181 181 199 209 211 193 205 210 214 217 220 221 218 217 218 219 216 213 204 193 184 172 172 183 192 195 204 208 213 219
318 314 305 300 293 291 293 294 292 289 284 282 280 277 273 270 269 269 267 266 263 259 258 259 259 256 257 254 260 257 254 253 254 247 249 243 240 239 241 239 238 240 240 235 238 239 250 257 267 260 228 237 227 204 170 179 200 205 205 206 198 201 208 216 217 217 215 215 215 215 212 213 207 200 195 179 170 178 188 191 202 206 209 216 222
319 306 306 305 296 293 289 286 287 288 287 286 284 283 281 279 274 271 268 260 260 261 262 260 258 256 255 258 258 257 255 254 257 256 250 247 244 241 242 242 240 240 241 240 237 240 244 252 259 270 234 229 229 221 194 188 184 197 205 209 187 211 195 198 210 210 208 211 211 208 205 197 197 193 187 182 176 181 184 197 200 204 208 207 186
324 322 318 305 292 292 288 286 283 283 285 281 279 280 281 281 279 275 272 269 265 262 258 258 257 255 255 256 258 254 253 253 255 257 255 253 246 245 242 241 243 237 242 243 237 240 241 249 255 252 260 238 214 237 196 187 203 183 179 175 209 203 199 197 202 199 203 212 211 201 191 186 188 183 181 178 183 187 195 196 198 201 201 184 183
337 332 326 320 311 290 286 283 282 282 281 282 278 274 274 273 273 274 275 273 272 269 266 261 257 254 253 252 252 252 250 251 251 254 251 252 252 252 246 240 243 238 242 244 241 241 244 248 250 257 246 253 230 229 181 166 210 225 199 182 205 206 195 198 202 189 200 203 204 192 192 187 188 183 185 185 191 195 194 195 195 195 180 185 177
319 320 312 310 307 299 283 274 277 273 271 270 267 270 277 274 270 273 275 274 271 271 270 267 263 262 261 257 256 254 247 248 248 250 251 249 252 256 253 239 242 241 242 242 241 240 243 246 253 250 252 250 239 212 196 195 200 205 188 199 221 180 152 180 203 198 194 189 188 191 193 182 179 188 185 189 194 192 192 188 189 187 182 186 183
327 318 314 302 290 291 295 292 278 265 264 263 262 261 259 268 278 276 275 274 275 274 273 272 269 263 261 260 258 252 250 249 248 248 249 249 247 248 256 252 244 244 242 243 242 240 242 246 249 252 250 250 242 222 213 214 193 143 186 193 212 181 148 198 210 210 185 188 183 194 194 187 183 183 182 187 183 183 174 184 179 172 185 187 189
322 321 313 306 302 295 289 288 288 278 268 265 274 271 270 264 263 271 269 271 270 273 275 274 274 275 270 265 266 262 253 249 250 248 249 249 246 246 247 248 247 246 248 244 244 240 241 245 251 249 247 254 250 229 223 212 208 206 205 204 203 168 185 180 207 202 186 181 194 194 199 192 181 189 186 180 167 169 170 169 173 176 183 189 194
315 309 299 295 297 294 286 281 274 272 273 279 283 283 277 275 269 269 273 271 268 266 264 268 270 273 273 269 264 260 257 257 257 257 249 244 244 245 246 246 245 243 241 242 248 248 239 244 249 248 249 247 253 235 227 208 194 202 210 200 193 180 185 199 196 196 187 180 190 193 200 185 179 185 187 182 166 172 167 164 174 177 183 189 195
305 301 304 300 294 292 283 282 277 270 269 269 273 275 275 276 277 274 273 270 270 269 269 267 266 267 269 270 275 271 269 255 251 250 258 258 248 243 244 246 245 243 242 242 242 244 249 248 247 252 245 248 248 244 220 209 194 212 202 202 194 191 198 201 204 190 158 180 180 191 189 188 181 189 190 174 172 169 159 173 178 183 189 194 197
313 308 304 299 297 298 295 293 289 283 274 280 278 275 274 274 274 275 269 270 268 269 269 267 265 266 263 265 269 269 269 266 263 259 254 254 257 255 250 246 245 244 243 243 244 244 243 245 247 252 253 243 242 247 225 194 192 203 184 203 196 197 201 212 214 193 113 169 184 177 177 183 181 184 181 147 171 163 152 177 184 190 190 193 198
313 314 315 311 303 296 292 291 291 284 274 279 278 274 270 270 271 270 269 267 265 265 266 263 260 260 262 263 264 269 273 269 263 259 260 259 258 257 254 252 248 247 244 240 237 238 241 242 245 248 255 252 248 245 236 201 204 204 198 202 199 203 209 206 61 191 172 183 181 186 200 170 172 171 175 136 152 150 152 183 190 190 190 194 193
301 295 293 291 293 296 289 286 287 284 279 274 272 270 266 266 270 269 266 264 264 266 267 266 263 262 263 262 264 268 270 270 266 258 254 259 261 260 257 256 256 252 250 243 237 232 235 237 239 244 248 250 245 241 233 214 211 207 203 207 202 188 160 190 206 170 176 184 187 193 184 169 172 156 153 136 135 155 166 176 193 190 194 192 188
307 302 294 293 290 294 296 288 276 283 283 280 277 279 279 275 277 274 272 268 266 266 265 268 267 265 263 260 265 271 274 273 268 262 258 255 258 259 260 260 259 258 257 252 237 236 239 240 243 245 248 251 251 248 242 228 216 195 175 187 197 176 181 195 194 181 193 176 192 196 185 153 166 158 151 148 146 160 162 175 183 196 190 188 186
310 304 300 297 293 280 295 299 292 288 293 294 291 282 281 278 269 273 274 273 268 265 268 266 267 264 261 258 254 260 265 266 268 266 263 259 259 259 260 260 262 262 261 257 248 243 241 241 242 245 247 251 251 250 246 234 207 191 178 202 196 169 194 187 187 183 170 182 190 175 171 167 148 156 127 120 107 133 140 119 127 181 182 186 192
298 299 301 303 304 299 297 298 297 292 291 295 295 290 283 281 277 266 269 274 272 267 271 274 272 272 270 264 257 251 253 264 269 269 267 260 258 256 259 258 260 262 262 262 251 251 247 244 246 247 249 250 249 246 243 234 208 197 199 208 185 187 191 187 165 140 159 208 187 173 163 151 147 158 140 127 140 89 93 129 146 163 171 182 190